HB0PJ-13 Weather Reports


Display with metric or nautical units.
time (UTC)temp
F
wind
direction
speed
MPH
gust
MPH
rain 1hr
in
rain 24hr
in
rain mn
in
humidity
%
barometer
mb
20260506210006 58 0.0 0.0 0.00 0.00 0.00 60 955.3
20260506205606 57 0.0 0.0 0.00 0.00 0.00 60 955.4
20260506205406 57 0.0 0.0 0.00 0.00 0.00 60 955.3
20260506205006 57 0.0 0.0 0.00 0.00 0.00 60 955.2
20260506204606 57 0.0 0.0 0.00 0.00 0.00 60 955.3
20260506204406 57 0.0 0.0 0.00 0.00 0.00 60 955.2
20260506204206 57 0.0 0.0 0.00 0.00 0.00 60 955.2
20260506204006 57 0.0 0.0 0.00 0.00 0.00 60 955.2
20260506203806 57 0.0 0.0 0.00 0.00 0.00 60 955.2
20260506203606 57 0.0 0.0 0.00 0.00 0.00 60 955.2
20260506203206 57 0.0 0.0 0.00 0.00 0.00 60 955.2
20260506203006 57 0.0 0.0 0.00 0.00 0.00 60 955.2
20260506202806 57 0.0 0.0 0.00 0.00 0.00 59 955.2
20260506202606 57 0.0 0.0 0.00 0.00 0.00 59 955.2
20260506202406 57 0.0 0.0 0.00 0.00 0.00 59 955.2
20260506202206 58 0.0 0.0 0.00 0.00 0.00 59 955.3
20260506202006 58 0.0 0.0 0.00 0.00 0.00 59 955.3
20260506201806 58 0.0 0.0 0.00 0.00 0.00 59 955.3
20260506201406 58 0.0 0.0 0.00 0.00 0.00 59 955.2
20260506201206 58 0.0 0.0 0.00 0.00 0.00 59 955.2
20260506200606 58 0.0 0.0 0.00 0.00 0.00 59 955.0
20260506200407 58 0.0 0.0 0.00 0.00 0.00 59 955.0
20260506200205 58 0.0 0.0 0.00 0.00 0.00 59 955.0
20260506200006 58 0.0 0.0 0.00 0.00 0.00 59 955.0
20260506195806 58 0.0 0.0 0.00 0.00 0.00 59 955.0
20260506195606 58 0.0 0.0 0.00 0.00 0.00 59 955.0
20260506195406 58 0.0 0.0 0.00 0.00 0.00 59 954.9
20260506195206 57 0.0 0.0 0.00 0.00 0.00 59 954.9
20260506195006 57 0.0 0.0 0.00 0.00 0.00 59 954.9
20260506194806 57 0.0 0.0 0.00 0.00 0.00 59 955.0
20260506194406 57 0.0 0.0 0.00 0.00 0.00 59 954.9
20260506194206 58 0.0 0.0 0.00 0.00 0.00 59 954.9
20260506194005 58 0.0 0.0 0.00 0.00 0.00 59 954.9
20260506193806 58 0.0 0.0 0.00 0.00 0.00 58 954.8
20260506193606 58 0.0 0.0 0.00 0.00 0.00 59 954.8
20260506193206 58 0.0 0.0 0.00 0.00 0.00 58 954.7
20260506193006 58 0.0 0.0 0.00 0.00 0.00 58 954.6
20260506192606 58 0.0 0.0 0.00 0.00 0.00 59 954.6
20260506191606 58 0.0 0.0 0.00 0.00 0.00 58 954.5
20260506191406 58 0.0 0.0 0.00 0.00 0.00 57 954.5
20260506191206 58 0.0 0.0 0.00 0.00 0.00 58 954.5
20260506191006 58 0.0 0.0 0.00 0.00 0.00 58 954.4
20260506190805 58 0.0 0.0 0.00 0.00 0.00 58 954.4
20260506190606 58 0.0 0.0 0.00 0.00 0.00 59 954.4
20260506190206 58 0.0 0.0 0.00 0.00 0.00 57 954.4
20260506190006 58 0.0 0.0 0.00 0.00 0.00 58 954.4
20260506185805 58 0.0 0.0 0.00 0.00 0.00 57 954.3
20260506185605 58 0.0 0.0 0.00 0.00 0.00 56 954.3
20260506185406 58 0.0 0.0 0.00 0.00 0.00 56 954.2
20260506185006 59 0.0 0.0 0.00 0.00 0.00 57 954.0
20260506184806 59 0.0 0.0 0.00 0.00 0.00 56 954.1
20260506184406 59 0.0 0.0 0.00 0.00 0.00 54 954.0
20260506184205 59 0.0 0.0 0.00 0.00 0.00 54 954.0
20260506184006 60 0.0 0.0 0.00 0.00 0.00 53 954.0
20260506183806 60 0.0 0.0 0.00 0.00 0.00 53 954.0
20260506183606 60 0.0 0.0 0.00 0.00 0.00 52 953.9
20260506183406 60 0.0 0.0 0.00 0.00 0.00 52 953.8
20260506183206 61 0.0 0.0 0.00 0.00 0.00 51 953.7
20260506182806 61 0.0 0.0 0.00 0.00 0.00 50 953.7
20260506182406 62 0.0 0.0 0.00 0.00 0.00 50 953.6
20260506182206 63 0.0 0.0 0.00 0.00 0.00 48 953.6
20260506182005 64 0.0 0.0 0.00 0.00 0.00 48 953.6
20260506181806 64 0.0 0.0 0.00 0.00 0.00 46 953.5
20260506181406 66 0.0 0.0 0.00 0.00 0.00 44 953.4
20260506181006 69 0.0 0.0 0.00 0.00 0.00 43 953.5
20260506180806 71 0.0 0.0 0.00 0.00 0.00 42 953.4
20260506180606 73 0.0 0.0 0.00 0.00 0.00 40 953.5
20260506180406 74 0.0 0.0 0.00 0.00 0.00 40 953.7
20260506180206 74 0.0 0.0 0.00 0.00 0.00 39 953.7
20260506175806 74 0.0 0.0 0.00 0.00 0.00 39 953.6
20260506175606 74 0.0 0.0 0.00 0.00 0.00 41 953.5
20260506175206 73 0.0 0.0 0.00 0.00 0.00 40 953.6
20260506175006 73 0.0 0.0 0.00 0.00 0.00 42 953.6
20260506174806 73 0.0 0.0 0.00 0.00 0.00 42 953.6
20260506174605 72 0.0 0.0 0.00 0.00 0.00 43 953.6
20260506174206 72 0.0 0.0 0.00 0.00 0.00 44 953.5
20260506174006 71 0.0 0.0 0.00 0.00 0.00 45 953.5
20260506173805 70 0.0 0.0 0.00 0.00 0.00 47 953.5
20260506173206 63 0.0 0.0 0.00 0.00 0.00 52 953.6
20260506172806 61 0.0 0.0 0.00 0.00 0.00 53 953.3
20260506172606 61 0.0 0.0 0.00 0.00 0.00 52 953.2
20260506172006 62 0.0 0.0 0.00 0.00 0.00 52 953.3
20260506171805 62 0.0 0.0 0.00 0.00 0.00 53 953.2
20260506171406 62 0.0 0.0 0.00 0.00 0.00 54 953.1
20260506171206 62 0.0 0.0 0.00 0.00 0.00 54 953.1
20260506170806 61 0.0 0.0 0.00 0.00 0.00 56 953.1
20260506170605 61 0.0 0.0 0.00 0.00 0.00 55 953.1
20260506170406 61 0.0 0.0 0.00 0.00 0.00 55 953.0
20260506170206 61 0.0 0.0 0.00 0.00 0.00 56 952.9
20260506165606 60 0.0 0.0 0.00 0.00 0.00 56 952.9
20260506165405 60 0.0 0.0 0.00 0.00 0.00 56 952.9
20260506165206 60 0.0 0.0 0.00 0.00 0.00 56 952.9
20260506165006 60 0.0 0.0 0.00 0.00 0.00 56 952.9
20260506164606 60 0.0 0.0 0.00 0.00 0.00 56 952.8
20260506164406 60 0.0 0.0 0.00 0.00 0.00 56 952.8
20260506164206 60 0.0 0.0 0.00 0.00 0.00 56 952.8
20260506163806 60 0.0 0.0 0.00 0.00 0.00 56 952.7
20260506163606 60 0.0 0.0 0.00 0.00 0.00 56 952.7
20260506163406 60 0.0 0.0 0.00 0.00 0.00 57 952.7
20260506163206 60 0.0 0.0 0.00 0.00 0.00 56 952.7
20260506163006 60 0.0 0.0 0.00 0.00 0.00 57 952.6
20260506162806 60 0.0 0.0 0.00 0.00 0.00 57 952.7
20260506162406 60 0.0 0.0 0.00 0.00 0.00 57 952.7
20260506162206 60 0.0 0.0 0.00 0.00 0.00 58 952.6
20260506162006 59 0.0 0.0 0.00 0.00 0.00 58 952.6
20260506161806 59 0.0 0.0 0.00 0.00 0.00 58 952.6
20260506161606 59 0.0 0.0 0.00 0.00 0.00 58 952.6
20260506161406 59 0.0 0.0 0.00 0.00 0.00 57 952.4
20260506160406 60 0.0 0.0 0.00 0.00 0.00 57 952.4
20260506160205 60 0.0 0.0 0.00 0.00 0.00 57 952.4
20260506155806 60 0.0 0.0 0.00 0.00 0.00 58 952.4
20260506155406 60 0.0 0.0 0.00 0.00 0.00 58 952.5
20260506155006 60 0.0 0.0 0.00 0.00 0.00 58 952.7
20260506154606 60 0.0 0.0 0.00 0.00 0.00 59 952.7
20260506154406 60 0.0 0.0 0.00 0.00 0.00 58 952.7
20260506154206 59 0.0 0.0 0.00 0.00 0.00 58 952.6
20260506154006 59 0.0 0.0 0.00 0.00 0.00 58 952.8
20260506153805 59 0.0 0.0 0.00 0.00 0.00 59 952.7
20260506153406 58 0.0 0.0 0.00 0.00 0.00 57 952.6
20260506153206 58 0.0 0.0 0.00 0.00 0.00 57 952.6
20260506153006 58 0.0 0.0 0.00 0.00 0.00 56 952.6
20260506152805 58 0.0 0.0 0.00 0.00 0.00 59 952.6
20260506152606 58 0.0 0.0 0.00 0.00 0.00 59 952.7
20260506152206 58 0.0 0.0 0.00 0.00 0.00 58 952.6
20260506152005 57 0.0 0.0 0.00 0.00 0.00 59 952.6
20260506151606 57 0.0 0.0 0.00 0.00 0.00 60 952.8
20260506151206 57 0.0 0.0 0.00 0.00 0.00 61 952.9
20260506150806 57 0.0 0.0 0.00 0.00 0.00 60 953.1
20260506150606 56 0.0 0.0 0.00 0.00 0.00 61 953.1
20260506150006 56 0.0 0.0 0.00 0.00 0.00 64 953.0
20260506145806 56 0.0 0.0 0.00 0.00 0.00 64 952.8
20260506145405 56 0.0 0.0 0.00 0.00 0.00 60 952.3
20260506145206 56 0.0 0.0 0.00 0.00 0.00 57 952.1
20260506145006 56 0.0 0.0 0.00 0.00 0.00 55 952.0
20260506144606 57 0.0 0.0 0.00 0.00 0.00 54 951.8
20260506144405 57 0.0 0.0 0.00 0.00 0.00 53 951.9
20260506144206 57 0.0 0.0 0.00 0.00 0.00 52 951.6
20260506144006 57 0.0 0.0 0.00 0.00 0.00 52 951.4
20260506143806 58 0.0 0.0 0.00 0.00 0.00 51 951.4
20260506143405 59 0.0 0.0 0.00 0.00 0.00 50 951.4
20260506143206 59 0.0 0.0 0.00 0.00 0.00 50 951.5
20260506142806 59 0.0 0.0 0.00 0.00 0.00 50 951.1
20260506142406 60 0.0 0.0 0.00 0.00 0.00 47 951.1
20260506142206 61 0.0 0.0 0.00 0.00 0.00 46 950.9
20260506142006 61 0.0 0.0 0.00 0.00 0.00 47 951.0
20260506141805 62 0.0 0.0 0.00 0.00 0.00 48 951.0
20260506141606 62 0.0 0.0 0.00 0.00 0.00 45 950.8
20260506141405 62 0.0 0.0 0.00 0.00 0.00 44 951.0
20260506141206 62 0.0 0.0 0.00 0.00 0.00 44 950.8
20260506140805 63 0.0 0.0 0.00 0.00 0.00 44 950.6
20260506140606 63 0.0 0.0 0.00 0.00 0.00 44 950.8
20260506140205 63 0.0 0.0 0.00 0.00 0.00 44 950.6
20260506140005 63 0.0 0.0 0.00 0.00 0.00 44 950.6
20260506135806 64 0.0 0.0 0.00 0.00 0.00 43 950.5
20260506135606 64 0.0 0.0 0.00 0.00 0.00 43 950.6
20260506135406 64 0.0 0.0 0.00 0.00 0.00 42 950.5
20260506135205 66 0.0 0.0 0.00 0.00 0.00 41 950.6
20260506134806 68 0.0 0.0 0.00 0.00 0.00 41 950.4
20260506134606 69 0.0 0.0 0.00 0.00 0.00 42 950.3
20260506134406 69 0.0 0.0 0.00 0.00 0.00 42 950.2
20260506134205 69 0.0 0.0 0.00 0.00 0.00 43 950.2
20260506134005 69 0.0 0.0 0.00 0.00 0.00 43 950.1
20260506133806 69 0.0 0.0 0.00 0.00 0.00 42 950.1
20260506133605 69 0.0 0.0 0.00 0.00 0.00 42 950.0
20260506133406 69 0.0 0.0 0.00 0.00 0.00 42 950.0
20260506133206 69 0.0 0.0 0.00 0.00 0.00 42 950.0
20260506132806 70 0.0 0.0 0.00 0.00 0.00 42 949.9
20260506132605 70 0.0 0.0 0.00 0.00 0.00 41 949.9
20260506132405 70 0.0 0.0 0.00 0.00 0.00 42 949.9
20260506131806 70 0.0 0.0 0.00 0.00 0.00 42 949.8
20260506131606 70 0.0 0.0 0.00 0.00 0.00 42 949.8
20260506131406 70 0.0 0.0 0.00 0.00 0.00 42 949.8
20260506131206 70 0.0 0.0 0.00 0.00 0.00 42 949.8
20260506130806 70 0.0 0.0 0.00 0.00 0.00 42 949.7
20260506130605 70 0.0 0.0 0.00 0.00 0.00 42 949.7
20260506130405 70 0.0 0.0 0.00 0.00 0.00 42 949.7
20260506130205 70 0.0 0.0 0.00 0.00 0.00 42 949.7
20260506130006 70 0.0 0.0 0.00 0.00 0.00 43 949.7
20260506125806 69 0.0 0.0 0.00 0.00 0.00 43 949.7
20260506125606 69 0.0 0.0 0.00 0.00 0.00 42 949.8
20260506125405 69 0.0 0.0 0.00 0.00 0.00 43 949.8
20260506125205 69 0.0 0.0 0.00 0.00 0.00 43 949.8
20260506125005 69 0.0 0.0 0.00 0.00 0.00 42 949.8
20260506124805 69 0.0 0.0 0.00 0.00 0.00 43 949.8
20260506124606 69 0.0 0.0 0.00 0.00 0.00 43 949.7
20260506124405 69 0.0 0.0 0.00 0.00 0.00 43 949.8
20260506124006 68 0.0 0.0 0.00 0.00 0.00 43 949.8
20260506123806 68 0.0 0.0 0.00 0.00 0.00 44 949.8
20260506123605 68 0.0 0.0 0.00 0.00 0.00 44 949.8
20260506123406 68 0.0 0.0 0.00 0.00 0.00 44 949.7
20260506123205 68 0.0 0.0 0.00 0.00 0.00 44 949.7
20260506123005 68 0.0 0.0 0.00 0.00 0.00 44 949.7
20260506122806 68 0.0 0.0 0.00 0.00 0.00 44 949.7
20260506122405 68 0.0 0.0 0.00 0.00 0.00 45 949.7
20260506122206 68 0.0 0.0 0.00 0.00 0.00 45 949.8
20260506122006 67 0.0 0.0 0.00 0.00 0.00 45 949.8
20260506121805 67 0.0 0.0 0.00 0.00 0.00 46 949.8
20260506121606 68 0.0 0.0 0.00 0.00 0.00 45 949.8
20260506121205 67 0.0 0.0 0.00 0.00 0.00 45 949.8
20260506121006 67 0.0 0.0 0.00 0.00 0.00 46 949.9
20260506120805 67 0.0 0.0 0.00 0.00 0.00 46 949.8
20260506120406 67 0.0 0.0 0.00 0.00 0.00 46 949.7
20260506120206 67 0.0 0.0 0.00 0.00 0.00 46 949.8
20260506115805 66 0.0 0.0 0.00 0.00 0.00 48 949.9
20260506115605 66 0.0 0.0 0.00 0.00 0.00 47 950.0
20260506115405 66 0.0 0.0 0.00 0.00 0.00 47 950.0
20260506115205 65 0.0 0.0 0.00 0.00 0.00 48 950.0
20260506115005 65 0.0 0.0 0.00 0.00 0.00 48 950.0
20260506114806 65 0.0 0.0 0.00 0.00 0.00 48 950.1
20260506114605 65 0.0 0.0 0.00 0.00 0.00 49 950.2
20260506114405 65 0.0 0.0 0.00 0.00 0.00 49 950.3
20260506114206 65 0.0 0.0 0.00 0.00 0.00 49 950.2
20260506113805 65 0.0 0.0 0.00 0.00 0.00 49 950.4
20260506113605 65 0.0 0.0 0.00 0.00 0.00 48 950.4
20260506113405 64 0.0 0.0 0.00 0.00 0.00 49 950.4
20260506113206 64 0.0 0.0 0.00 0.00 0.00 49 950.4
20260506112805 64 0.0 0.0 0.00 0.00 0.00 50 950.5
20260506112606 64 0.0 0.0 0.00 0.00 0.00 50 950.4
20260506112405 64 0.0 0.0 0.00 0.00 0.00 49 950.4
20260506112006 64 0.0 0.0 0.00 0.00 0.00 48 950.3
20260506111606 64 0.0 0.0 0.00 0.00 0.00 49 950.2
20260506111406 64 0.0 0.0 0.00 0.00 0.00 49 950.2
20260506111006 64 0.0 0.0 0.00 0.00 0.00 48 950.1
20260506110805 64 0.0 0.0 0.00 0.00 0.00 48 950.1
20260506110605 64 0.0 0.0 0.00 0.00 0.00 48 950.2
20260506110205 64 0.0 0.0 0.00 0.00 0.00 48 950.2
20260506110006 64 0.0 0.0 0.00 0.00 0.00 48 950.1
20260506105805 65 0.0 0.0 0.00 0.00 0.00 48 950.1
20260506105405 65 0.0 0.0 0.00 0.00 0.00 49 950.0
20260506105205 65 0.0 0.0 0.00 0.00 0.00 49 950.0
20260506105006 65 0.0 0.0 0.00 0.00 0.00 49 950.0
20260506104806 65 0.0 0.0 0.00 0.00 0.00 49 950.0
20260506104405 65 0.0 0.0 0.00 0.00 0.00 49 949.9
20260506104205 65 0.0 0.0 0.00 0.00 0.00 50 949.9
20260506104006 65 0.0 0.0 0.00 0.00 0.00 51 950.0
20260506103805 64 0.0 0.0 0.00 0.00 0.00 51 950.0
20260506103605 65 0.0 0.0 0.00 0.00 0.00 51 950.0
20260506103405 65 0.0 0.0 0.00 0.00 0.00 50 950.0
20260506103006 64 0.0 0.0 0.00 0.00 0.00 51 950.2
20260506102805 64 0.0 0.0 0.00 0.00 0.00 52 950.2
20260506102405 64 0.0 0.0 0.00 0.00 0.00 52 950.3
20260506102205 64 0.0 0.0 0.00 0.00 0.00 52 950.3
20260506101806 64 0.0 0.0 0.00 0.00 0.00 52 950.4
20260506101605 64 0.0 0.0 0.00 0.00 0.00 51 950.4
20260506101405 64 0.0 0.0 0.00 0.00 0.00 51 950.3
20260506101205 64 0.0 0.0 0.00 0.00 0.00 50 950.4
20260506101005 64 0.0 0.0 0.00 0.00 0.00 50 950.4
20260506100806 64 0.0 0.0 0.00 0.00 0.00 49 950.5
20260506100302 64 0.0 0.0 0.00 0.00 0.00 49 950.6
20260506095902 64 0.0 0.0 0.00 0.00 0.00 48 950.5
20260506095702 64 0.0 0.0 0.00 0.00 0.00 48 950.4
20260506095502 64 0.0 0.0 0.00 0.00 0.00 49 950.4
20260506095305 64 0.0 0.0 0.00 0.00 0.00 48 950.4
20260506095102 64 0.0 0.0 0.00 0.00 0.00 48 950.4
20260506094902 64 0.0 0.0 0.00 0.00 0.00 48 950.4
20260506094702 64 0.0 0.0 0.00 0.00 0.00 47 950.5
20260506094502 64 0.0 0.0 0.00 0.00 0.00 48 950.6
20260506094102 64 0.0 0.0 0.00 0.00 0.00 48 950.7
20260506093702 64 0.0 0.0 0.00 0.00 0.00 48 950.6
20260506093502 64 0.0 0.0 0.00 0.00 0.00 48 950.6
20260506093302 64 0.0 0.0 0.00 0.00 0.00 48 950.6
20260506093102 64 0.0 0.0 0.00 0.00 0.00 49 950.6
20260506092702 64 0.0 0.0 0.00 0.00 0.00 48 950.5
20260506092502 64 0.0 0.0 0.00 0.00 0.00 48 950.5
20260506092302 64 0.0 0.0 0.00 0.00 0.00 48 950.5
20260506092102 64 0.0 0.0 0.00 0.00 0.00 48 950.5
20260506091902 64 0.0 0.0 0.00 0.00 0.00 48 950.5
20260506091702 64 0.0 0.0 0.00 0.00 0.00 48 950.5
20260506091502 64 0.0 0.0 0.00 0.00 0.00 49 950.5
20260506091302 64 0.0 0.0 0.00 0.00 0.00 50 950.5
20260506090902 64 0.0 0.0 0.00 0.00 0.00 50 950.5
20260506090502 64 0.0 0.0 0.00 0.00 0.00 50 950.6
20260506090302 64 0.0 0.0 0.00 0.00 0.00 50 950.6
20260506085702 63 0.0 0.0 0.00 0.00 0.00 51 950.5
20260506085502 63 0.0 0.0 0.00 0.00 0.00 51 950.5
20260506085102 62 0.0 0.0 0.00 0.00 0.00 52 950.6
20260506084902 62 0.0 0.0 0.00 0.00 0.00 52 950.7
20260506084702 62 0.0 0.0 0.00 0.00 0.00 52 950.7
20260506084502 62 0.0 0.0 0.00 0.00 0.00 52 950.7
20260506084302 62 0.0 0.0 0.00 0.00 0.00 52 950.7
20260506084102 62 0.0 0.0 0.00 0.00 0.00 52 950.7
20260506083902 61 0.0 0.0 0.00 0.00 0.00 53 950.7
20260506083702 61 0.0 0.0 0.00 0.00 0.00 53 950.7
20260506083502 61 0.0 0.0 0.00 0.00 0.00 53 950.7
20260506083302 61 0.0 0.0 0.00 0.00 0.00 52 950.8
20260506082902 61 0.0 0.0 0.00 0.00 0.00 52 950.7
20260506082702 61 0.0 0.0 0.00 0.00 0.00 52 950.7
20260506082502 61 0.0 0.0 0.00 0.00 0.00 51 950.7
20260506082304 61 0.0 0.0 0.00 0.00 0.00 51 950.8
20260506082102 61 0.0 0.0 0.00 0.00 0.00 51 950.7
20260506081902 61 0.0 0.0 0.00 0.00 0.00 52 950.7
20260506081702 61 0.0 0.0 0.00 0.00 0.00 52 950.6
20260506081502 61 0.0 0.0 0.00 0.00 0.00 52 950.7
20260506081302 61 0.0 0.0 0.00 0.00 0.00 52 950.8
20260506080902 61 0.0 0.0 0.00 0.00 0.00 52 950.9
20260506080702 61 0.0 0.0 0.00 0.00 0.00 53 950.9
20260506080502 60 0.0 0.0 0.00 0.00 0.00 53 950.9
20260506080302 60 0.0 0.0 0.00 0.00 0.00 53 950.9
20260506073502 59 0.0 0.0 0.00 0.00 0.00 55 950.9
20260506073302 59 0.0 0.0 0.00 0.00 0.00 55 950.9
20260506073102 59 0.0 0.0 0.00 0.00 0.00 55 950.8
20260506072902 59 0.0 0.0 0.00 0.00 0.00 55 950.8
20260506072702 59 0.0 0.0 0.00 0.00 0.00 56 950.8
20260506072502 59 0.0 0.0 0.00 0.00 0.00 57 950.9
20260506072305 59 0.0 0.0 0.00 0.00 0.00 57 950.8
20260506072102 59 0.0 0.0 0.00 0.00 0.00 57 950.9
20260506071902 59 0.0 0.0 0.00 0.00 0.00 57 950.9
20260506071702 59 0.0 0.0 0.00 0.00 0.00 57 950.8
20260506071302 58 0.0 0.0 0.00 0.00 0.00 58 950.9
20260506071102 58 0.0 0.0 0.00 0.00 0.00 58 950.9
20260506070902 58 0.0 0.0 0.00 0.00 0.00 57 950.9
20260506070702 58 0.0 0.0 0.00 0.00 0.00 56 950.9
20260506070502 58 0.0 0.0 0.00 0.00 0.00 56 950.9
20260506070302 59 0.0 0.0 0.00 0.00 0.00 57 950.8
20260506062502 57 0.0 0.0 0.00 0.00 0.00 59 951.0
20260506062305 57 0.0 0.0 0.00 0.00 0.00 59 950.9
20260506062102 57 0.0 0.0 0.00 0.00 0.00 59 950.8
20260506061902 57 0.0 0.0 0.00 0.00 0.00 59 950.9
20260506061502 57 0.0 0.0 0.00 0.00 0.00 59 950.9
20260506061302 57 0.0 0.0 0.00 0.00 0.00 59 951.0
20260506060902 57 0.0 0.0 0.00 0.00 0.00 59 951.0
20260506060702 57 0.0 0.0 0.00 0.00 0.00 59 951.1
20260506060502 57 0.0 0.0 0.00 0.00 0.00 59 951.0
20260506060301 57 0.0 0.0 0.00 0.00 0.00 59 951.1
20260506051301 56 0.0 0.0 0.00 0.00 0.00 59 951.1
20260506051102 56 0.0 0.0 0.00 0.00 0.00 59 951.1
20260506050901 56 0.0 0.0 0.00 0.00 0.00 59 951.1
20260506050702 56 0.0 0.0 0.00 0.00 0.00 59 951.1
20260506050502 56 0.0 0.0 0.00 0.00 0.00 59 951.2
20260506050301 56 0.0 0.0 0.00 0.00 0.00 59 951.1
20260506045102 56 0.0 0.0 0.00 0.00 0.00 59 951.2
20260506044902 56 0.0 0.0 0.00 0.00 0.00 60 951.2
20260506044702 56 0.0 0.0 0.00 0.00 0.00 60 951.2
20260506044501 56 0.0 0.0 0.00 0.00 0.00 59 951.2
20260506044302 56 0.0 0.0 0.00 0.00 0.00 59 951.2
20260506043902 56 0.0 0.0 0.00 0.00 0.00 59 951.3
20260506043702 56 0.0 0.0 0.00 0.00 0.00 60 951.4
20260506043502 56 0.0 0.0 0.00 0.00 0.00 60 951.3
20260506043302 56 0.0 0.0 0.00 0.00 0.00 60 951.3
20260506043101 56 0.0 0.0 0.00 0.00 0.00 60 951.3
20260506042902 56 0.0 0.0 0.00 0.00 0.00 59 951.3
20260506042502 56 0.0 0.0 0.00 0.00 0.00 59 951.4
20260506042305 56 0.0 0.0 0.00 0.00 0.00 59 951.5
20260506042102 56 0.0 0.0 0.00 0.00 0.00 59 951.4
20260506041901 56 0.0 0.0 0.00 0.00 0.00 59 951.5
20260506041701 56 0.0 0.0 0.00 0.00 0.00 59 951.5
20260506041501 56 0.0 0.0 0.00 0.00 0.00 59 951.5
20260506041302 56 0.0 0.0 0.00 0.00 0.00 59 951.5
20260506041102 56 0.0 0.0 0.00 0.00 0.00 59 951.5
20260506040902 56 0.0 0.0 0.00 0.00 0.00 59 951.5
20260506040702 56 0.0 0.0 0.00 0.00 0.00 59 951.5
20260506040502 56 0.0 0.0 0.00 0.00 0.00 59 951.5
20260506040301 56 0.0 0.0 0.00 0.00 0.00 59 951.6
20260506035902 56 0.0 0.0 0.00 0.00 0.00 59 951.6
20260506035702 56 0.0 0.0 0.00 0.00 0.00 59 951.6
20260506035502 56 0.0 0.0 0.00 0.00 0.00 59 951.6
20260506035302 57 0.0 0.0 0.00 0.00 0.00 59 951.7
20260506035101 57 0.0 0.0 0.00 0.00 0.00 58 951.8
20260506034902 57 0.0 0.0 0.00 0.00 0.00 58 951.8
20260506034702 57 0.0 0.0 0.00 0.00 0.00 59 951.8
20260506034501 56 0.0 0.0 0.00 0.00 0.00 59 951.8
20260506034301 56 0.0 0.0 0.00 0.00 0.00 59 951.8
20260506033902 56 0.0 0.0 0.00 0.00 0.00 59 951.8
20260506033701 56 0.0 0.0 0.00 0.00 0.00 59 951.9
20260506033502 56 0.0 0.0 0.00 0.00 0.00 59 952.0
20260506033302 56 0.0 0.0 0.00 0.00 0.00 59 952.0
20260506033102 56 0.0 0.0 0.00 0.00 0.00 58 952.0
20260506032902 56 0.0 0.0 0.00 0.00 0.00 58 952.1
20260506032702 56 0.0 0.0 0.00 0.00 0.00 58 952.2
20260506032502 56 0.0 0.0 0.00 0.00 0.00 58 952.1
20260506032305 56 0.0 0.0 0.00 0.00 0.00 58 952.2
20260506031901 56 0.0 0.0 0.00 0.00 0.00 58 952.2
20260506031702 57 0.0 0.0 0.00 0.00 0.00 58 952.2
20260506031502 57 0.0 0.0 0.00 0.00 0.00 58 952.2
20260506031301 57 0.0 0.0 0.00 0.00 0.00 58 952.3
20260506031102 57 0.0 0.0 0.00 0.00 0.00 58 952.4
20260506030902 56 0.0 0.0 0.00 0.00 0.00 58 952.3
20260506030701 56 0.0 0.0 0.00 0.00 0.00 59 952.3
20260506030502 56 0.0 0.0 0.00 0.00 0.00 58 952.3
20260506030301 57 0.0 0.0 0.00 0.00 0.00 58 952.4
20260506025902 57 0.0 0.0 0.00 0.00 0.00 57 952.4
20260506025501 57 0.0 0.0 0.00 0.00 0.00 57 952.2
20260506025305 57 0.0 0.0 0.00 0.00 0.00 57 952.2
20260506025101 57 0.0 0.0 0.00 0.00 0.00 57 952.3
20260506024901 57 0.0 0.0 0.00 0.00 0.00 57 952.4
20260506024502 57 0.0 0.0 0.00 0.00 0.00 58 952.4
20260506024302 57 0.0 0.0 0.00 0.00 0.00 58 952.5
20260506024101 57 0.0 0.0 0.00 0.00 0.00 58 952.6
20260506023902 57 0.0 0.0 0.00 0.00 0.00 58 952.6
20260506023701 57 0.0 0.0 0.00 0.00 0.00 58 952.6
20260506023102 56 0.0 0.0 0.00 0.00 0.00 58 952.6
20260506022902 56 0.0 0.0 0.00 0.00 0.00 58 952.7
20260506022702 57 0.0 0.0 0.00 0.00 0.00 58 952.7
20260506022501 57 0.0 0.0 0.00 0.00 0.00 58 952.8
20260506022102 56 0.0 0.0 0.00 0.00 0.00 58 952.9
20260506021905 56 0.0 0.0 0.00 0.00 0.00 58 952.9
20260506021502 57 0.0 0.0 0.00 0.00 0.00 57 953.0
20260506021302 57 0.0 0.0 0.00 0.00 0.00 57 953.0
20260506021102 57 0.0 0.0 0.00 0.00 0.00 57 953.0
20260506020902 57 0.0 0.0 0.00 0.00 0.00 57 952.9
20260506020702 57 0.0 0.0 0.00 0.00 0.00 57 952.9
20260506020502 57 0.0 0.0 0.00 0.00 0.00 57 952.8
20260506020301 57 0.0 0.0 0.00 0.00 0.00 57 952.8
20260506015901 57 0.0 0.0 0.00 0.00 0.00 57 953.0
20260506015702 57 0.0 0.0 0.00 0.00 0.00 57 953.0
20260506015502 57 0.0 0.0 0.00 0.00 0.00 57 953.0
20260506015302 57 0.0 0.0 0.00 0.00 0.00 57 952.9
20260506015101 57 0.0 0.0 0.00 0.00 0.00 57 952.8
20260506014702 57 0.0 0.0 0.00 0.00 0.00 57 952.8
20260506014301 57 0.0 0.0 0.00 0.00 0.00 57 952.8
20260506014101 57 0.0 0.0 0.00 0.00 0.00 57 952.8
20260506013902 57 0.0 0.0 0.00 0.00 0.00 57 952.9
20260506013702 57 0.0 0.0 0.00 0.00 0.00 57 952.9
20260506013502 57 0.0 0.0 0.00 0.00 0.00 57 953.0
20260506013302 57 0.0 0.0 0.00 0.00 0.00 57 953.0
20260506013102 57 0.0 0.0 0.00 0.00 0.00 57 953.0
20260506012702 57 0.0 0.0 0.00 0.00 0.00 56 953.1
20260506012502 57 0.0 0.0 0.00 0.00 0.00 56 953.2
20260506012101 57 0.0 0.0 0.00 0.00 0.00 56 953.1
20260506011902 57 0.0 0.0 0.00 0.00 0.00 56 953.1
20260506011702 57 0.0 0.0 0.00 0.00 0.00 55 953.1
20260506011502 57 0.0 0.0 0.00 0.00 0.00 55 953.2
20260506011301 57 0.0 0.0 0.00 0.00 0.00 55 953.1
20260506011102 57 0.0 0.0 0.00 0.00 0.00 55 953.1
20260506010901 57 0.0 0.0 0.00 0.00 0.00 55 953.1
20260506010702 57 0.0 0.0 0.00 0.00 0.00 55 953.1
20260506010501 57 0.0 0.0 0.00 0.00 0.00 55 953.2
20260506010302 57 0.0 0.0 0.00 0.00 0.00 55 953.2
20260506005902 57 0.0 0.0 0.00 0.00 0.00 55 953.1
20260506005702 57 0.0 0.0 0.00 0.00 0.00 55 953.2
20260506005502 58 0.0 0.0 0.00 0.00 0.00 55 953.2
20260506005302 57 0.0 0.0 0.00 0.00 0.00 55 953.2
20260506005102 57 0.0 0.0 0.00 0.00 0.00 55 953.3
20260506004902 58 0.0 0.0 0.00 0.00 0.00 54 953.2
20260506004701 58 0.0 0.0 0.00 0.00 0.00 54 953.3
20260506004501 58 0.0 0.0 0.00 0.00 0.00 54 953.3
20260506004101 58 0.0 0.0 0.00 0.00 0.00 54 953.3
20260506003902 58 0.0 0.0 0.00 0.00 0.00 54 953.3
20260506003702 58 0.0 0.0 0.00 0.00 0.00 54 953.3
20260506003501 58 0.0 0.0 0.00 0.00 0.00 54 953.2
20260506003301 58 0.0 0.0 0.00 0.00 0.00 54 953.2
20260506003102 58 0.0 0.0 0.00 0.00 0.00 54 953.2
20260506002902 58 0.0 0.0 0.00 0.00 0.00 54 953.2
20260506002701 58 0.0 0.0 0.00 0.00 0.00 54 953.3
20260506002501 58 0.0 0.0 0.00 0.00 0.00 54 953.4
20260506002301 58 0.0 0.0 0.00 0.00 0.00 53 953.4
20260506002102 58 0.0 0.0 0.00 0.00 0.00 54 953.5
20260506001902 58 0.0 0.0 0.00 0.00 0.00 53 953.5
20260506001702 58 0.0 0.0 0.00 0.00 0.00 54 953.5
20260506001502 58 0.0 0.0 0.00 0.00 0.00 54 953.4
20260506001302 58 0.0 0.0 0.00 0.00 0.00 54 953.5
20260506000901 58 0.0 0.0 0.00 0.00 0.00 54 953.7
20260506000702 58 0.0 0.0 0.00 0.00 0.00 54 953.7
20260506000302 58 0.0 0.0 0.00 0.00 0.00 54 953.8
20260505235902 58 0.0 0.0 0.00 0.00 0.00 54 953.8
20260505235701 58 0.0 0.0 0.00 0.00 0.00 54 953.8
20260505235502 58 0.0 0.0 0.00 0.00 0.00 54 953.8
20260505235101 58 0.0 0.0 0.00 0.00 0.00 54 953.7
20260505234902 58 0.0 0.0 0.00 0.00 0.00 54 953.7
20260505234701 58 0.0 0.0 0.00 0.00 0.00 54 953.6
20260505234502 58 0.0 0.0 0.00 0.00 0.00 54 953.7
20260505234302 58 0.0 0.0 0.00 0.00 0.00 54 953.7
20260505234102 58 0.0 0.0 0.00 0.00 0.00 54 953.7
20260505233902 58 0.0 0.0 0.00 0.00 0.00 54 953.7
20260505233701 58 0.0 0.0 0.00 0.00 0.00 54 953.6
20260505233502 58 0.0 0.0 0.00 0.00 0.00 53 953.5
20260505233301 58 0.0 0.0 0.00 0.00 0.00 53 953.6
20260505233101 58 0.0 0.0 0.00 0.00 0.00 53 953.6
20260505232902 58 0.0 0.0 0.00 0.00 0.00 53 953.7
20260505232702 58 0.0 0.0 0.00 0.00 0.00 53 953.7
20260505232501 58 0.0 0.0 0.00 0.00 0.00 53 953.7
20260505232305 58 0.0 0.0 0.00 0.00 0.00 53 953.7
20260505232101 59 0.0 0.0 0.00 0.00 0.00 53 953.7
20260505231901 59 0.0 0.0 0.00 0.00 0.00 53 953.7
20260505231701 59 0.0 0.0 0.00 0.00 0.00 53 953.7
20260505231302 59 0.0 0.0 0.00 0.00 0.00 52 953.8
20260505231101 59 0.0 0.0 0.00 0.00 0.00 52 953.9
20260505230902 59 0.0 0.0 0.00 0.00 0.00 52 953.8
20260505230502 59 0.0 0.0 0.00 0.00 0.00 52 953.8
20260505225902 59 0.0 0.0 0.00 0.00 0.00 52 953.7
20260505225701 59 0.0 0.0 0.00 0.00 0.00 52 953.8
20260505225502 59 0.0 0.0 0.00 0.00 0.00 52 953.8
20260505225305 59 0.0 0.0 0.00 0.00 0.00 52 953.8
20260505225102 59 0.0 0.0 0.00 0.00 0.00 52 953.7
20260505224902 59 0.0 0.0 0.00 0.00 0.00 52 953.8
20260505224702 59 0.0 0.0 0.00 0.00 0.00 52 953.8
20260505224502 59 0.0 0.0 0.00 0.00 0.00 52 953.8
20260505224302 59 0.0 0.0 0.00 0.00 0.00 52 953.8
20260505224102 59 0.0 0.0 0.00 0.00 0.00 51 953.9
20260505223901 59 0.0 0.0 0.00 0.00 0.00 51 954.0
20260505223701 59 0.0 0.0 0.00 0.00 0.00 51 953.9
20260505223502 59 0.0 0.0 0.00 0.00 0.00 51 953.9
20260505223302 59 0.0 0.0 0.00 0.00 0.00 51 953.9
20260505223102 59 0.0 0.0 0.00 0.00 0.00 51 953.9
20260505222501 60 0.0 0.0 0.00 0.00 0.00 50 953.8
20260505222301 60 0.0 0.0 0.00 0.00 0.00 50 953.8
20260505222101 60 0.0 0.0 0.00 0.00 0.00 50 953.8
20260505221902 60 0.0 0.0 0.00 0.00 0.00 50 953.8
20260505221701 60 0.0 0.0 0.00 0.00 0.00 50 953.7
20260505221501 60 0.0 0.0 0.00 0.00 0.00 50 953.7
20260505221302 60 0.0 0.0 0.00 0.00 0.00 50 953.7
20260505221102 60 0.0 0.0 0.00 0.00 0.00 50 953.7
20260505220901 60 0.0 0.0 0.00 0.00 0.00 50 953.7
20260505220701 60 0.0 0.0 0.00 0.00 0.00 50 953.8
20260505220502 60 0.0 0.0 0.00 0.00 0.00 50 953.9
20260505215902 60 0.0 0.0 0.00 0.00 0.00 49 953.9
20260505215502 60 0.0 0.0 0.00 0.00 0.00 49 953.9
20260505215304 60 0.0 0.0 0.00 0.00 0.00 49 954.0
20260505215101 61 0.0 0.0 0.00 0.00 0.00 49 953.9
20260505214901 61 0.0 0.0 0.00 0.00 0.00 49 954.0
20260505214701 61 0.0 0.0 0.00 0.00 0.00 49 953.9
20260505214501 61 0.0 0.0 0.00 0.00 0.00 49 954.0
20260505214302 61 0.0 0.0 0.00 0.00 0.00 49 954.0
20260505214102 61 0.0 0.0 0.00 0.00 0.00 49 954.1
20260505213901 61 0.0 0.0 0.00 0.00 0.00 48 954.1
20260505213701 61 0.0 0.0 0.00 0.00 0.00 48 954.2
20260505213301 61 0.0 0.0 0.00 0.00 0.00 48 954.1
20260505213102 61 0.0 0.0 0.00 0.00 0.00 48 954.2
20260505212901 61 0.0 0.0 0.00 0.00 0.00 48 954.2
20260505212701 61 0.0 0.0 0.00 0.00 0.00 48 954.2
20260505212502 61 0.0 0.0 0.00 0.00 0.00 48 954.2
20260505212302 61 0.0 0.0 0.00 0.00 0.00 48 954.3
20260505212101 61 0.0 0.0 0.00 0.00 0.00 48 954.3
20260505211901 61 0.0 0.0 0.00 0.00 0.00 48 954.3
20260505211702 61 0.0 0.0 0.00 0.00 0.00 48 954.2
20260505211502 62 0.0 0.0 0.00 0.00 0.00 47 954.3
20260505211301 62 0.0 0.0 0.00 0.00 0.00 47 954.2
20260505210902 62 0.0 0.0 0.00 0.00 0.00 47 954.2
20260505210701 62 0.0 0.0 0.00 0.00 0.00 47 954.1
20260505210502 62 0.0 0.0 0.00 0.00 0.00 47 954.1
20260505210302 62 0.0 0.0 0.00 0.00 0.00 47 954.1